Hourly Data Report for February 26, 2017

All times are specified in Local Standard Time (LST). Add 1 hour to adjust for Daylight Saving Time where and when it is observed.

GRAND ETANG
NOVA SCOTIA

46°33'00.000" N
61°03'00.000" W
12.80 m
8201969
WZQ

Related Data

No related data is available for this station

Download Data

Hourly Data (February 2017)
Hourly Data Report for February 26, 2017
Temp Definition
°C
Dew Point Temp Definition
°C
Rel Hum Definition
%
Wind Dir Definition
10's deg

Wind Spd Definition
km/h
Visibility Definition
km
Stn Press Definition
kPa
Hmdx Definition


Wind Chill Definition


Weather Definition


TIME
00:00 12.5 10.0 85 14 41   100.57     LegendNANA
01:00 13.1 10.6 84 14 39   100.49     LegendNANA
02:00 12.9 10.0 82 14 47   100.34     LegendNANA
03:00 12.9 9.9 83 14 39   100.17     LegendNANA
04:00 12.0 9.7 86 13 33   99.89     LegendNANA
05:00 11.9 9.5 86 15 22   99.60     LegendNANA
06:00 11.3 8.5 83 13 53   99.12     LegendNANA
07:00 11.7 9.0 84 13 58   98.92     LegendNANA
08:00 12.3 9.6 83 15 55   98.85     LegendNANA
09:00 14.0 10.2 78 17 37   98.83     LegendNANA
10:00 15.5 10.5 72 18 32   98.90     LegendNANA
11:00 17.9 11.2 65 19 26   98.86     LegendNANA
12:00 15.6 9.9 69 21 30   98.93     LegendNANA
13:00 7.1 5.7 91 22 28   99.15     LegendNANA
14:00 4.8 3.9 94 21 15   99.36     LegendNANA
15:00 5.0 3.4 89 21 10   99.45     LegendNANA
16:00 7.5 3.2 74 24 8   99.52     LegendNANA
17:00 3.9 2.4 90 20 12   99.61     LegendNANA
18:00 3.3 1.0 85 20 12   99.70     LegendNANA
19:00 2.6 0.2 84 20 18   99.86     LegendNANA
20:00 2.0 -0.8 82 23 18   99.99     LegendNANA
21:00 1.0 -1.2 85 26 22   100.12     LegendNANA
22:00 0.7 -3.4 74 28 45   100.25     LegendNANA
23:00 -0.6 -3.3 82 29 37   100.43   -8 LegendNANA

Notes on Data Quality.

Legend

  • E = Estimated
  • M = Missing
  • NA = Not Available
  • ‡ = Partner data that is not subject to review by the National Climate Archives
Date modified: